owner,sensor,date,latitude,longitude,vertical_datum,sea_water_practical_salinity,qcFlag 
DISL,ioos:station:DISL:MHPA:1,2010-03-01T00:00:00Z,30.6671,-87.9365,3.329,0.06,1111122 
DISL,ioos:station:DISL:MHPA:1,2010-03-01T00:30:00Z,30.6671,-87.9365,3.311,0.06,1111122 
DISL,ioos:station:DISL:MHPA:1,2010-03-01T01:00:00Z,30.6671,-87.9365,3.293,0.06,1111122 
DISL,ioos:station:DISL:MHPA:1,2010-03-01T01:30:00Z,30.6671,-87.9365,3.298,0.06,1111122 
DISL,ioos:station:DISL:MHPA:1,2010-03-01T02:00:00Z,30.6671,-87.9365,3.31,0.06,1111122 
DISL,ioos:station:DISL:MHPA:1,2010-03-01T02:30:00Z,30.6671,-87.9365,3.323,0.06,1111122 
DISL,ioos:station:DISL:MHPA:1,2010-03-01T03:00:00Z,30.6671,-87.9365,3.384,0.06,1111122 
DISL,ioos:station:DISL:MHPA:1,2010-03-01T03:30:00Z,30.6671,-87.9365,3.453,0.06,1111122 
DISL,ioos:station:DISL:MHPA:1,2010-03-01T04:00:00Z,30.6671,-87.9365,3.52,0.06,1111122 
DISL,ioos:station:DISL:MHPA:1,2010-03-01T04:30:00Z,30.6671,-87.9365,3.53,0.06,1111122 
DISL,ioos:station:DISL:MHPA:1,2010-03-01T05:00:00Z,30.6671,-87.9365,3.546,0.06,1111122 
DISL,ioos:station:DISL:MHPA:1,2010-03-01T05:30:00Z,30.6671,-87.9365,3.611,0.06,1111122 
DISL,ioos:station:DISL:MHPA:1,2010-03-01T06:00:00Z,30.6671,-87.9365,3.574,0.06,1111122 
DISL,ioos:station:DISL:MHPA:1,2010-03-01T06:30:00Z,30.6671,-87.9365,3.548,0.06,1111122 
DISL,ioos:station:DISL:MHPA:1,2010-03-01T07:00:00Z,30.6671,-87.9365,3.593,0.06,1111122 
DISL,ioos:station:DISL:MHPA:1,2010-03-01T07:30:00Z,30.6671,-87.9365,3.578,0.06,1111122 
DISL,ioos:station:DISL:MHPA:1,2010-03-01T08:00:00Z,30.6671,-87.9365,3.539,0.06,1111122 
DISL,ioos:station:DISL:MHPA:1,2010-03-01T08:30:00Z,30.6671,-87.9365,3.505,0.06,1111122 
DISL,ioos:station:DISL:MHPA:1,2010-03-01T09:00:00Z,30.6671,-87.9365,3.424,0.06,1111122 
DISL,ioos:station:DISL:MHPA:1,2010-03-01T09:30:00Z,30.6671,-87.9365,3.365,0.06,1111122 
DISL,ioos:station:DISL:MHPA:1,2010-03-01T10:00:00Z,30.6671,-87.9365,3.263,0.06,1111122 
DISL,ioos:station:DISL:MHPA:1,2010-03-01T10:30:00Z,30.6671,-87.9365,3.151,0.06,1111122 
DISL,ioos:station:DISL:MHPA:1,2010-03-01T11:00:00Z,30.6671,-87.9365,3.037,0.06,1111122 
DISL,ioos:station:DISL:MHPA:1,2010-03-01T11:30:00Z,30.6671,-87.9365,2.929,0.06,1111122 
DISL,ioos:station:DISL:MHPA:1,2010-03-01T12:00:00Z,30.6671,-87.9365,2.841,0.06,1111122 
DISL,ioos:station:DISL:MHPA:1,2010-03-01T12:30:00Z,30.6671,-87.9365,2.763,0.06,1111122 
DISL,ioos:station:DISL:MHPA:1,2010-03-01T13:00:00Z,30.6671,-87.9365,2.69,0.06,1111122 
DISL,ioos:station:DISL:MHPA:1,2010-03-01T13:30:00Z,30.6671,-87.9365,2.652,0.06,1111122 
DISL,ioos:station:DISL:MHPA:1,2010-03-01T14:00:00Z,30.6671,-87.9365,2.655,0.06,1111122 
DISL,ioos:station:DISL:MHPA:1,2010-03-01T14:30:00Z,30.6671,-87.9365,2.649,0.06,1111122 
DISL,ioos:station:DISL:MHPA:1,2010-03-01T15:00:00Z,30.6671,-87.9365,2.694,0.06,1111122 
DISL,ioos:station:DISL:MHPA:1,2010-03-01T15:30:00Z,30.6671,-87.9365,2.778,0.06,1111122 
DISL,ioos:station:DISL:MHPA:1,2010-03-01T16:00:00Z,30.6671,-87.9365,2.87,0.06,1111122 
DISL,ioos:station:DISL:MHPA:1,2010-03-01T16:30:00Z,30.6671,-87.9365,2.914,0.06,1111122 
DISL,ioos:station:DISL:MHPA:1,2010-03-01T17:00:00Z,30.6671,-87.9365,2.965,0.06,1111122 
DISL,ioos:station:DISL:MHPA:1,2010-03-01T17:30:00Z,30.6671,-87.9365,3.067,0.06,1111122 
DISL,ioos:station:DISL:MHPA:1,2010-03-01T18:00:00Z,30.6671,-87.9365,3.105,0.06,1111122 
DISL,ioos:station:DISL:MHPA:1,2010-03-01T18:30:00Z,30.6671,-87.9365,3.301,0.06,1111122 
DISL,ioos:station:DISL:MHPA:1,2010-03-01T19:00:00Z,30.6671,-87.9365,3.394,0.06,1111122 
DISL,ioos:station:DISL:MHPA:1,2010-03-01T19:30:00Z,30.6671,-87.9365,3.48,0.06,1111122 
DISL,ioos:station:DISL:MHPA:1,2010-03-01T20:00:00Z,30.6671,-87.9365,3.648,0.06,1111122 
DISL,ioos:station:DISL:MHPA:1,2010-03-01T20:30:00Z,30.6671,-87.9365,3.773,0.06,1111122 
DISL,ioos:station:DISL:MHPA:1,2010-03-01T21:00:00Z,30.6671,-87.9365,3.864,0.06,1111122 
DISL,ioos:station:DISL:MHPA:1,2010-03-01T21:30:00Z,30.6671,-87.9365,3.893,0.06,1111122 
DISL,ioos:station:DISL:MHPA:1,2010-03-01T22:00:00Z,30.6671,-87.9365,3.857,0.06,1111122 
DISL,ioos:station:DISL:MHPA:1,2010-03-01T22:30:00Z,30.6671,-87.9365,3.719,0.06,1111122 
DISL,ioos:station:DISL:MHPA:1,2010-03-01T23:00:00Z,30.6671,-87.9365,3.687,0.06,1111122 
DISL,ioos:station:DISL:MHPA:1,2010-03-01T23:30:00Z,30.6671,-87.9365,3.592,0.06,1111122 
DISL,ioos:station:DISL:MHPA:1,2010-03-02T00:00:00Z,30.6671,-87.9365,3.505,0.06,1111122 
DISL,ioos:station:DISL:MHPA:1,2010-03-02T00:30:00Z,30.6671,-87.9365,3.259,0.06,1111122 
DISL,ioos:station:DISL:MHPA:1,2010-03-02T01:00:00Z,30.6671,-87.9365,3.253,0.06,1111122 
DISL,ioos:station:DISL:MHPA:1,2010-03-02T01:30:00Z,30.6671,-87.9365,3.113,0.06,1111122 
DISL,ioos:station:DISL:MHPA:1,2010-03-02T02:00:00Z,30.6671,-87.9365,3.014,0.06,1111122 
DISL,ioos:station:DISL:MHPA:1,2010-03-02T02:30:00Z,30.6671,-87.9365,3.0,0.06,1111122 
DISL,ioos:station:DISL:MHPA:1,2010-03-02T03:00:00Z,30.6671,-87.9365,3.184,0.06,1111122 
DISL,ioos:station:DISL:MHPA:1,2010-03-02T03:30:00Z,30.6671,-87.9365,3.147,0.06,1111122 
DISL,ioos:station:DISL:MHPA:1,2010-03-02T04:00:00Z,30.6671,-87.9365,2.99,0.06,1111122 
DISL,ioos:station:DISL:MHPA:1,2010-03-02T04:30:00Z,30.6671,-87.9365,2.616,0.06,1111122 
DISL,ioos:station:DISL:MHPA:1,2010-03-02T05:00:00Z,30.6671,-87.9365,2.238,0.06,1111122 
DISL,ioos:station:DISL:MHPA:1,2010-03-02T05:30:00Z,30.6671,-87.9365,2.014,0.06,1111122 
DISL,ioos:station:DISL:MHPA:1,2010-03-02T06:00:00Z,30.6671,-87.9365,1.908,0.06,1111122 
DISL,ioos:station:DISL:MHPA:1,2010-03-02T06:30:00Z,30.6671,-87.9365,2.103,0.06,1111122 
DISL,ioos:station:DISL:MHPA:1,2010-03-02T07:00:00Z,30.6671,-87.9365,3.143,0.06,1111122 
DISL,ioos:station:DISL:MHPA:1,2010-03-02T07:30:00Z,30.6671,-87.9365,3.214,0.06,1111122 
DISL,ioos:station:DISL:MHPA:1,2010-03-02T08:00:00Z,30.6671,-87.9365,2.857,0.06,1111122 
DISL,ioos:station:DISL:MHPA:1,2010-03-02T08:30:00Z,30.6671,-87.9365,2.732,0.06,1111122 
DISL,ioos:station:DISL:MHPA:1,2010-03-02T09:00:00Z,30.6671,-87.9365,3.091,0.06,1111122 
DISL,ioos:station:DISL:MHPA:1,2010-03-02T09:30:00Z,30.6671,-87.9365,3.27,0.06,1111122 
DISL,ioos:station:DISL:MHPA:1,2010-03-02T10:00:00Z,30.6671,-87.9365,3.654,0.06,1111122 
DISL,ioos:station:DISL:MHPA:1,2010-03-02T10:30:00Z,30.6671,-87.9365,3.974,0.06,1111122 
DISL,ioos:station:DISL:MHPA:1,2010-03-02T11:00:00Z,30.6671,-87.9365,4.004,0.06,1111122 
DISL,ioos:station:DISL:MHPA:1,2010-03-02T11:30:00Z,30.6671,-87.9365,4.08,0.06,1111122 
DISL,ioos:station:DISL:MHPA:1,2010-03-02T12:00:00Z,30.6671,-87.9365,3.978,0.06,1111122 
DISL,ioos:station:DISL:MHPA:1,2010-03-02T12:30:00Z,30.6671,-87.9365,3.841,0.06,1111122 
DISL,ioos:station:DISL:MHPA:1,2010-03-02T13:00:00Z,30.6671,-87.9365,3.705,0.06,1111122 
DISL,ioos:station:DISL:MHPA:1,2010-03-02T13:30:00Z,30.6671,-87.9365,3.601,0.06,1111122 
DISL,ioos:station:DISL:MHPA:1,2010-03-02T14:00:00Z,30.6671,-87.9365,3.489,0.06,1111122 
DISL,ioos:station:DISL:MHPA:1,2010-03-02T14:30:00Z,30.6671,-87.9365,3.416,0.06,1111122 
DISL,ioos:station:DISL:MHPA:1,2010-03-02T15:00:00Z,30.6671,-87.9365,3.398,0.06,1111122 
DISL,ioos:station:DISL:MHPA:1,2010-03-02T15:30:00Z,30.6671,-87.9365,3.462,0.06,1111122 
DISL,ioos:station:DISL:MHPA:1,2010-03-02T16:00:00Z,30.6671,-87.9365,3.347,0.06,1111122 
DISL,ioos:station:DISL:MHPA:1,2010-03-02T16:30:00Z,30.6671,-87.9365,3.256,0.06,1111122 
DISL,ioos:station:DISL:MHPA:1,2010-03-02T17:00:00Z,30.6671,-87.9365,3.166,0.06,1111122 
DISL,ioos:station:DISL:MHPA:1,2010-03-02T17:30:00Z,30.6671,-87.9365,3.201,0.06,1111122 
DISL,ioos:station:DISL:MHPA:1,2010-03-02T18:00:00Z,30.6671,-87.9365,3.105,0.06,1111122 
DISL,ioos:station:DISL:MHPA:1,2010-03-02T18:30:00Z,30.6671,-87.9365,3.02,0.06,1111122 
DISL,ioos:station:DISL:MHPA:1,2010-03-02T19:00:00Z,30.6671,-87.9365,2.959,0.06,1111122 
DISL,ioos:station:DISL:MHPA:1,2010-03-02T19:30:00Z,30.6671,-87.9365,3.017,0.06,1111122 
DISL,ioos:station:DISL:MHPA:1,2010-03-02T20:00:00Z,30.6671,-87.9365,3.229,0.06,1111122 
DISL,ioos:station:DISL:MHPA:1,2010-03-02T20:30:00Z,30.6671,-87.9365,3.292,0.06,1111122 
DISL,ioos:station:DISL:MHPA:1,2010-03-02T21:00:00Z,30.6671,-87.9365,3.084,0.06,1111122 
DISL,ioos:station:DISL:MHPA:1,2010-03-02T21:30:00Z,30.6671,-87.9365,2.948,0.06,1111122 
DISL,ioos:station:DISL:MHPA:1,2010-03-02T22:00:00Z,30.6671,-87.9365,2.959,0.06,1111122 
DISL,ioos:station:DISL:MHPA:1,2010-03-02T22:30:00Z,30.6671,-87.9365,2.927,0.06,1111122 
DISL,ioos:station:DISL:MHPA:1,2010-03-02T23:00:00Z,30.6671,-87.9365,2.828,0.06,1111122 
DISL,ioos:station:DISL:MHPA:1,2010-03-02T23:30:00Z,30.6671,-87.9365,2.776,0.06,1111122 
DISL,ioos:station:DISL:MHPA:1,2010-03-03T00:00:00Z,30.6671,-87.9365,2.737,0.06,1111122 
DISL,ioos:station:DISL:MHPA:1,2010-03-03T00:30:00Z,30.6671,-87.9365,2.616,0.06,1111122 
DISL,ioos:station:DISL:MHPA:1,2010-03-03T01:00:00Z,30.6671,-87.9365,2.531,0.06,1111122 
DISL,ioos:station:DISL:MHPA:1,2010-03-03T01:30:00Z,30.6671,-87.9365,2.444,0.06,1111122 
DISL,ioos:station:DISL:MHPA:1,2010-03-03T02:00:00Z,30.6671,-87.9365,2.389,0.06,1111122 
DISL,ioos:station:DISL:MHPA:1,2010-03-03T02:30:00Z,30.6671,-87.9365,2.36,0.06,1111122 
DISL,ioos:station:DISL:MHPA:1,2010-03-03T03:00:00Z,30.6671,-87.9365,2.293,0.06,1111122 
DISL,ioos:station:DISL:MHPA:1,2010-03-03T03:30:00Z,30.6671,-87.9365,2.229,0.06,1111122 
DISL,ioos:station:DISL:MHPA:1,2010-03-03T04:00:00Z,30.6671,-87.9365,2.169,0.06,1111122 
DISL,ioos:station:DISL:MHPA:1,2010-03-03T04:30:00Z,30.6671,-87.9365,2.123,0.06,1111122 
DISL,ioos:station:DISL:MHPA:1,2010-03-03T05:00:00Z,30.6671,-87.9365,2.092,0.06,1111122 
DISL,ioos:station:DISL:MHPA:1,2010-03-03T05:30:00Z,30.6671,-87.9365,2.094,0.06,1111122 
DISL,ioos:station:DISL:MHPA:1,2010-03-03T06:00:00Z,30.6671,-87.9365,2.105,0.06,1111122 
DISL,ioos:station:DISL:MHPA:1,2010-03-03T06:30:00Z,30.6671,-87.9365,2.106,0.06,1111122 
DISL,ioos:station:DISL:MHPA:1,2010-03-03T07:00:00Z,30.6671,-87.9365,2.104,0.06,1111122 
DISL,ioos:station:DISL:MHPA:1,2010-03-03T07:30:00Z,30.6671,-87.9365,2.1,0.06,1111122 
DISL,ioos:station:DISL:MHPA:1,2010-03-03T08:00:00Z,30.6671,-87.9365,2.14,0.06,1111122 
DISL,ioos:station:DISL:MHPA:1,2010-03-03T08:30:00Z,30.6671,-87.9365,2.195,0.06,1111122 
DISL,ioos:station:DISL:MHPA:1,2010-03-03T09:00:00Z,30.6671,-87.9365,2.258,0.06,1111122 
DISL,ioos:station:DISL:MHPA:1,2010-03-03T09:30:00Z,30.6671,-87.9365,2.342,0.06,1111122 
DISL,ioos:station:DISL:MHPA:1,2010-03-03T10:00:00Z,30.6671,-87.9365,2.415,0.06,1111122 
DISL,ioos:station:DISL:MHPA:1,2010-03-03T10:30:00Z,30.6671,-87.9365,2.448,0.06,1111122 
DISL,ioos:station:DISL:MHPA:1,2010-03-03T11:00:00Z,30.6671,-87.9365,2.471,0.06,1111122 
DISL,ioos:station:DISL:MHPA:1,2010-03-03T11:30:00Z,30.6671,-87.9365,2.468,0.06,1111122 
DISL,ioos:station:DISL:MHPA:1,2010-03-03T12:00:00Z,30.6671,-87.9365,2.52,0.06,1111122 
DISL,ioos:station:DISL:MHPA:1,2010-03-03T12:30:00Z,30.6671,-87.9365,2.503,0.06,1111122 
DISL,ioos:station:DISL:MHPA:1,2010-03-03T13:00:00Z,30.6671,-87.9365,2.489,0.06,1111122 
DISL,ioos:station:DISL:MHPA:1,2010-03-03T13:30:00Z,30.6671,-87.9365,2.492,0.06,1111122 
DISL,ioos:station:DISL:MHPA:1,2010-03-03T14:00:00Z,30.6671,-87.9365,2.476,0.06,1111122 
DISL,ioos:station:DISL:MHPA:1,2010-03-03T14:30:00Z,30.6671,-87.9365,2.455,0.06,1111122 
DISL,ioos:station:DISL:MHPA:1,2010-03-03T15:00:00Z,30.6671,-87.9365,2.425,0.06,1111122 
DISL,ioos:station:DISL:MHPA:1,2010-03-03T15:30:00Z,30.6671,-87.9365,2.406,0.06,1111122 
DISL,ioos:station:DISL:MHPA:1,2010-03-03T16:00:00Z,30.6671,-87.9365,2.396,0.06,1111122 
DISL,ioos:station:DISL:MHPA:1,2010-03-03T16:30:00Z,30.6671,-87.9365,2.415,0.06,1111122 
DISL,ioos:station:DISL:MHPA:1,2010-03-03T17:00:00Z,30.6671,-87.9365,2.51,0.06,1111122 
DISL,ioos:station:DISL:MHPA:1,2010-03-03T17:30:00Z,30.6671,-87.9365,2.629,0.06,1111122 
DISL,ioos:station:DISL:MHPA:1,2010-03-03T18:00:00Z,30.6671,-87.9365,2.745,0.06,1111122 
DISL,ioos:station:DISL:MHPA:1,2010-03-03T18:30:00Z,30.6671,-87.9365,2.784,0.06,1111122 
DISL,ioos:station:DISL:MHPA:1,2010-03-03T19:00:00Z,30.6671,-87.9365,2.921,0.06,1111122 
DISL,ioos:station:DISL:MHPA:1,2010-03-03T19:30:00Z,30.6671,-87.9365,3.044,0.06,1111122 
DISL,ioos:station:DISL:MHPA:1,2010-03-03T20:00:00Z,30.6671,-87.9365,3.065,0.06,1111122 
DISL,ioos:station:DISL:MHPA:1,2010-03-03T20:30:00Z,30.6671,-87.9365,3.034,0.06,1111122 
DISL,ioos:station:DISL:MHPA:1,2010-03-03T21:00:00Z,30.6671,-87.9365,3.059,0.06,1111122 
DISL,ioos:station:DISL:MHPA:1,2010-03-03T21:30:00Z,30.6671,-87.9365,3.049,0.06,1111122 
DISL,ioos:station:DISL:MHPA:1,2010-03-03T22:00:00Z,30.6671,-87.9365,3.02,0.06,1111122 
DISL,ioos:station:DISL:MHPA:1,2010-03-03T22:30:00Z,30.6671,-87.9365,2.983,0.06,1111122 
DISL,ioos:station:DISL:MHPA:1,2010-03-03T23:00:00Z,30.6671,-87.9365,2.927,0.06,1111122 
DISL,ioos:station:DISL:MHPA:1,2010-03-03T23:30:00Z,30.6671,-87.9365,2.833,0.06,1111122 
DISL,ioos:station:DISL:MHPA:1,2010-03-04T00:00:00Z,30.6671,-87.9365,2.717,0.06,1111122 
DISL,ioos:station:DISL:MHPA:1,2010-03-04T00:30:00Z,30.6671,-87.9365,2.628,0.06,1111122 
DISL,ioos:station:DISL:MHPA:1,2010-03-04T01:00:00Z,30.6671,-87.9365,2.531,0.06,1111122 
DISL,ioos:station:DISL:MHPA:1,2010-03-04T01:30:00Z,30.6671,-87.9365,2.437,0.06,1111122 
DISL,ioos:station:DISL:MHPA:1,2010-03-04T02:00:00Z,30.6671,-87.9365,2.339,0.06,1111122 
DISL,ioos:station:DISL:MHPA:1,2010-03-04T02:30:00Z,30.6671,-87.9365,2.243,0.06,1111122 
DISL,ioos:station:DISL:MHPA:1,2010-03-04T03:00:00Z,30.6671,-87.9365,2.169,0.06,1111122 
DISL,ioos:station:DISL:MHPA:1,2010-03-04T03:30:00Z,30.6671,-87.9365,2.104,0.06,1111122 
DISL,ioos:station:DISL:MHPA:1,2010-03-04T04:00:00Z,30.6671,-87.9365,2.03,0.06,1111122 
DISL,ioos:station:DISL:MHPA:1,2010-03-04T04:30:00Z,30.6671,-87.9365,1.963,0.06,1111122 
DISL,ioos:station:DISL:MHPA:1,2010-03-04T05:00:00Z,30.6671,-87.9365,1.899,0.06,1111122 
DISL,ioos:station:DISL:MHPA:1,2010-03-04T05:30:00Z,30.6671,-87.9365,1.833,0.06,1111122 
DISL,ioos:station:DISL:MHPA:1,2010-03-04T06:00:00Z,30.6671,-87.9365,1.77,0.06,1111122 
DISL,ioos:station:DISL:MHPA:1,2010-03-04T06:30:00Z,30.6671,-87.9365,1.717,0.06,1111122 
DISL,ioos:station:DISL:MHPA:1,2010-03-04T07:00:00Z,30.6671,-87.9365,1.673,0.06,1111122 
DISL,ioos:station:DISL:MHPA:1,2010-03-04T07:30:00Z,30.6671,-87.9365,1.647,0.06,1111122 
DISL,ioos:station:DISL:MHPA:1,2010-03-04T08:00:00Z,30.6671,-87.9365,1.656,0.06,1111122 
DISL,ioos:station:DISL:MHPA:1,2010-03-04T08:30:00Z,30.6671,-87.9365,1.683,0.06,1111122 
DISL,ioos:station:DISL:MHPA:1,2010-03-04T09:00:00Z,30.6671,-87.9365,1.725,0.06,1111122 
DISL,ioos:station:DISL:MHPA:1,2010-03-04T09:30:00Z,30.6671,-87.9365,1.786,0.06,1111122 
DISL,ioos:station:DISL:MHPA:1,2010-03-04T10:00:00Z,30.6671,-87.9365,1.828,0.06,1111122 
DISL,ioos:station:DISL:MHPA:1,2010-03-04T10:30:00Z,30.6671,-87.9365,1.855,0.06,1111122 
DISL,ioos:station:DISL:MHPA:1,2010-03-04T11:00:00Z,30.6671,-87.9365,1.922,0.06,1111122 
DISL,ioos:station:DISL:MHPA:1,2010-03-04T11:30:00Z,30.6671,-87.9365,2.062,0.06,1111122 
DISL,ioos:station:DISL:MHPA:1,2010-03-04T12:00:00Z,30.6671,-87.9365,2.23,0.06,1111122 
DISL,ioos:station:DISL:MHPA:1,2010-03-04T12:30:00Z,30.6671,-87.9365,2.406,0.06,1111122 
DISL,ioos:station:DISL:MHPA:1,2010-03-04T13:00:00Z,30.6671,-87.9365,2.549,0.06,1111122 
DISL,ioos:station:DISL:MHPA:1,2010-03-04T13:30:00Z,30.6671,-87.9365,2.682,0.06,1111122 
DISL,ioos:station:DISL:MHPA:1,2010-03-04T14:00:00Z,30.6671,-87.9365,2.753,0.06,1111122 
DISL,ioos:station:DISL:MHPA:1,2010-03-04T14:30:00Z,30.6671,-87.9365,2.799,0.06,1111122 
DISL,ioos:station:DISL:MHPA:1,2010-03-04T15:00:00Z,30.6671,-87.9365,2.884,0.06,1111122 
DISL,ioos:station:DISL:MHPA:1,2010-03-04T15:30:00Z,30.6671,-87.9365,2.906,0.06,1111122 
DISL,ioos:station:DISL:MHPA:1,2010-03-04T16:00:00Z,30.6671,-87.9365,2.936,0.06,1111122 
DISL,ioos:station:DISL:MHPA:1,2010-03-04T16:30:00Z,30.6671,-87.9365,2.968,0.06,1111122 
DISL,ioos:station:DISL:MHPA:1,2010-03-04T17:00:00Z,30.6671,-87.9365,2.974,0.06,1111122 
DISL,ioos:station:DISL:MHPA:1,2010-03-04T17:30:00Z,30.6671,-87.9365,3.053,0.06,1111122 
DISL,ioos:station:DISL:MHPA:1,2010-03-04T18:00:00Z,30.6671,-87.9365,3.198,0.06,1111122 
DISL,ioos:station:DISL:MHPA:1,2010-03-04T18:30:00Z,30.6671,-87.9365,3.255,0.06,1111122 
DISL,ioos:station:DISL:MHPA:1,2010-03-04T19:00:00Z,30.6671,-87.9365,3.288,0.06,1111122 
DISL,ioos:station:DISL:MHPA:1,2010-03-04T19:30:00Z,30.6671,-87.9365,3.33,0.06,1111122 
DISL,ioos:station:DISL:MHPA:1,2010-03-04T20:00:00Z,30.6671,-87.9365,3.297,0.06,1111122 
DISL,ioos:station:DISL:MHPA:1,2010-03-04T20:30:00Z,30.6671,-87.9365,3.247,0.06,1111122 
DISL,ioos:station:DISL:MHPA:1,2010-03-04T21:00:00Z,30.6671,-87.9365,3.217,0.06,1111122 
DISL,ioos:station:DISL:MHPA:1,2010-03-04T21:30:00Z,30.6671,-87.9365,3.172,0.06,1111122 
DISL,ioos:station:DISL:MHPA:1,2010-03-04T22:00:00Z,30.6671,-87.9365,3.078,0.06,1111122 
DISL,ioos:station:DISL:MHPA:1,2010-03-04T22:30:00Z,30.6671,-87.9365,3.008,0.06,1111122 
DISL,ioos:station:DISL:MHPA:1,2010-03-04T23:00:00Z,30.6671,-87.9365,2.974,0.06,1111122 
DISL,ioos:station:DISL:MHPA:1,2010-03-04T23:30:00Z,30.6671,-87.9365,2.909,0.06,1111122 
DISL,ioos:station:DISL:MHPA:1,2010-03-05T00:00:00Z,30.6671,-87.9365,2.824,0.06,1111122 
DISL,ioos:station:DISL:MHPA:1,2010-03-05T00:30:00Z,30.6671,-87.9365,2.75,0.06,1111122 
DISL,ioos:station:DISL:MHPA:1,2010-03-05T01:00:00Z,30.6671,-87.9365,2.679,0.06,1111122 
DISL,ioos:station:DISL:MHPA:1,2010-03-05T01:30:00Z,30.6671,-87.9365,2.598,0.06,1111122 
DISL,ioos:station:DISL:MHPA:1,2010-03-05T02:00:00Z,30.6671,-87.9365,2.522,0.06,1111122 
DISL,ioos:station:DISL:MHPA:1,2010-03-05T02:30:00Z,30.6671,-87.9365,2.442,0.06,1111122 
DISL,ioos:station:DISL:MHPA:1,2010-03-05T03:00:00Z,30.6671,-87.9365,2.355,0.06,1111122 
DISL,ioos:station:DISL:MHPA:1,2010-03-05T03:30:00Z,30.6671,-87.9365,2.277,0.06,1111122 
DISL,ioos:station:DISL:MHPA:1,2010-03-05T04:00:00Z,30.6671,-87.9365,2.209,0.06,1111122 
DISL,ioos:station:DISL:MHPA:1,2010-03-05T04:30:00Z,30.6671,-87.9365,2.149,0.06,1111122 
DISL,ioos:station:DISL:MHPA:1,2010-03-05T05:00:00Z,30.6671,-87.9365,2.093,0.06,1111122 
DISL,ioos:station:DISL:MHPA:1,2010-03-05T05:30:00Z,30.6671,-87.9365,2.032,0.06,1111122 
DISL,ioos:station:DISL:MHPA:1,2010-03-05T06:00:00Z,30.6671,-87.9365,1.985,0.06,1111122 
DISL,ioos:station:DISL:MHPA:1,2010-03-05T06:30:00Z,30.6671,-87.9365,1.949,0.06,1111122 
DISL,ioos:station:DISL:MHPA:1,2010-03-05T07:00:00Z,30.6671,-87.9365,1.936,0.06,1111122 
DISL,ioos:station:DISL:MHPA:1,2010-03-05T07:30:00Z,30.6671,-87.9365,1.898,0.06,1111122 
DISL,ioos:station:DISL:MHPA:1,2010-03-05T08:00:00Z,30.6671,-87.9365,1.867,0.06,1111122 
DISL,ioos:station:DISL:MHPA:1,2010-03-05T08:30:00Z,30.6671,-87.9365,1.85,0.06,1111122 
DISL,ioos:station:DISL:MHPA:1,2010-03-05T09:00:00Z,30.6671,-87.9365,1.835,0.06,1111122 
DISL,ioos:station:DISL:MHPA:1,2010-03-05T09:30:00Z,30.6671,-87.9365,1.823,0.06,1111122 
DISL,ioos:station:DISL:MHPA:1,2010-03-05T10:00:00Z,30.6671,-87.9365,1.827,0.06,1111122 
DISL,ioos:station:DISL:MHPA:1,2010-03-05T10:30:00Z,30.6671,-87.9365,1.847,0.06,1111122 
DISL,ioos:station:DISL:MHPA:1,2010-03-05T11:00:00Z,30.6671,-87.9365,1.898,0.06,1111122 
DISL,ioos:station:DISL:MHPA:1,2010-03-05T11:30:00Z,30.6671,-87.9365,1.982,0.06,1111122 
DISL,ioos:station:DISL:MHPA:1,2010-03-05T12:00:00Z,30.6671,-87.9365,2.103,0.06,1111122 
DISL,ioos:station:DISL:MHPA:1,2010-03-05T12:30:00Z,30.6671,-87.9365,2.236,0.06,1111122 
DISL,ioos:station:DISL:MHPA:1,2010-03-05T13:00:00Z,30.6671,-87.9365,2.379,0.06,1111122 
DISL,ioos:station:DISL:MHPA:1,2010-03-05T13:30:00Z,30.6671,-87.9365,2.469,0.06,1111122 
DISL,ioos:station:DISL:MHPA:1,2010-03-05T14:00:00Z,30.6671,-87.9365,2.532,0.06,1111122 
DISL,ioos:station:DISL:MHPA:1,2010-03-05T14:30:00Z,30.6671,-87.9365,2.662,0.06,1111122 
DISL,ioos:station:DISL:MHPA:1,2010-03-05T15:00:00Z,30.6671,-87.9365,2.768,0.06,1111122 
DISL,ioos:station:DISL:MHPA:1,2010-03-05T15:30:00Z,30.6671,-87.9365,2.828,0.06,1111122 
DISL,ioos:station:DISL:MHPA:1,2010-03-05T16:00:00Z,30.6671,-87.9365,2.945,0.06,1111122 
DISL,ioos:station:DISL:MHPA:1,2010-03-05T16:30:00Z,30.6671,-87.9365,3.095,0.06,1111122 
DISL,ioos:station:DISL:MHPA:1,2010-03-05T17:00:00Z,30.6671,-87.9365,3.132,0.06,1111122 
DISL,ioos:station:DISL:MHPA:1,2010-03-05T17:30:00Z,30.6671,-87.9365,3.243,0.06,1111122 
DISL,ioos:station:DISL:MHPA:1,2010-03-05T18:00:00Z,30.6671,-87.9365,3.327,0.06,1111122 
DISL,ioos:station:DISL:MHPA:1,2010-03-05T18:30:00Z,30.6671,-87.9365,3.41,0.06,1111122 
DISL,ioos:station:DISL:MHPA:1,2010-03-05T19:00:00Z,30.6671,-87.9365,3.499,0.06,1111122 
DISL,ioos:station:DISL:MHPA:1,2010-03-05T19:30:00Z,30.6671,-87.9365,3.54,0.06,1111122 
DISL,ioos:station:DISL:MHPA:1,2010-03-05T20:00:00Z,30.6671,-87.9365,3.527,0.06,1111122 
DISL,ioos:station:DISL:MHPA:1,2010-03-05T20:30:00Z,30.6671,-87.9365,3.55,0.06,1111122 
DISL,ioos:station:DISL:MHPA:1,2010-03-05T21:00:00Z,30.6671,-87.9365,3.551,0.06,1111122 
DISL,ioos:station:DISL:MHPA:1,2010-03-05T21:30:00Z,30.6671,-87.9365,3.516,0.06,1111122 
DISL,ioos:station:DISL:MHPA:1,2010-03-05T22:00:00Z,30.6671,-87.9365,3.469,0.06,1111122 
DISL,ioos:station:DISL:MHPA:1,2010-03-05T22:30:00Z,30.6671,-87.9365,3.393,0.06,1111122 
DISL,ioos:station:DISL:MHPA:1,2010-03-05T23:00:00Z,30.6671,-87.9365,3.307,0.06,1111122 
DISL,ioos:station:DISL:MHPA:1,2010-03-05T23:30:00Z,30.6671,-87.9365,3.29,0.06,1111122 
DISL,ioos:station:DISL:MHPA:1,2010-03-06T00:00:00Z,30.6671,-87.9365,3.213,0.06,1111122 
DISL,ioos:station:DISL:MHPA:1,2010-03-06T00:30:00Z,30.6671,-87.9365,3.118,0.06,1111122 
DISL,ioos:station:DISL:MHPA:1,2010-03-06T01:00:00Z,30.6671,-87.9365,3.044,0.06,1111122 
DISL,ioos:station:DISL:MHPA:1,2010-03-06T01:30:00Z,30.6671,-87.9365,2.928,0.06,1111122 
DISL,ioos:station:DISL:MHPA:1,2010-03-06T02:00:00Z,30.6671,-87.9365,2.816,0.06,1111122 
DISL,ioos:station:DISL:MHPA:1,2010-03-06T02:30:00Z,30.6671,-87.9365,2.717,0.06,1111122 
DISL,ioos:station:DISL:MHPA:1,2010-03-06T03:00:00Z,30.6671,-87.9365,2.629,0.06,1111122 
DISL,ioos:station:DISL:MHPA:1,2010-03-06T03:30:00Z,30.6671,-87.9365,2.562,0.06,1111122 
DISL,ioos:station:DISL:MHPA:1,2010-03-06T04:00:00Z,30.6671,-87.9365,2.499,0.06,1111122 
DISL,ioos:station:DISL:MHPA:1,2010-03-06T04:30:00Z,30.6671,-87.9365,2.43,0.06,1111122 
DISL,ioos:station:DISL:MHPA:1,2010-03-06T05:00:00Z,30.6671,-87.9365,2.356,0.06,1111122 
DISL,ioos:station:DISL:MHPA:1,2010-03-06T05:30:00Z,30.6671,-87.9365,2.277,0.06,1111122 
DISL,ioos:station:DISL:MHPA:1,2010-03-06T06:00:00Z,30.6671,-87.9365,2.199,0.06,1111122 
DISL,ioos:station:DISL:MHPA:1,2010-03-06T06:30:00Z,30.6671,-87.9365,2.13,0.06,1111122 
DISL,ioos:station:DISL:MHPA:1,2010-03-06T07:00:00Z,30.6671,-87.9365,2.075,0.06,1111122 
DISL,ioos:station:DISL:MHPA:1,2010-03-06T07:30:00Z,30.6671,-87.9365,2.027,0.06,1111122 
DISL,ioos:station:DISL:MHPA:1,2010-03-06T08:00:00Z,30.6671,-87.9365,1.985,0.06,1111122 
DISL,ioos:station:DISL:MHPA:1,2010-03-06T08:30:00Z,30.6671,-87.9365,1.941,0.06,1111122 
DISL,ioos:station:DISL:MHPA:1,2010-03-06T09:00:00Z,30.6671,-87.9365,1.896,0.06,1111122 
DISL,ioos:station:DISL:MHPA:1,2010-03-06T09:30:00Z,30.6671,-87.9365,1.857,0.06,1111122 
DISL,ioos:station:DISL:MHPA:1,2010-03-06T10:00:00Z,30.6671,-87.9365,1.829,0.06,1111122 
DISL,ioos:station:DISL:MHPA:1,2010-03-06T10:30:00Z,30.6671,-87.9365,1.803,0.06,1111122 
DISL,ioos:station:DISL:MHPA:1,2010-03-06T11:00:00Z,30.6671,-87.9365,1.781,0.06,1111122 
DISL,ioos:station:DISL:MHPA:1,2010-03-06T11:30:00Z,30.6671,-87.9365,1.777,0.06,1111122 
DISL,ioos:station:DISL:MHPA:1,2010-03-06T12:00:00Z,30.6671,-87.9365,1.79,0.06,1111122 
DISL,ioos:station:DISL:MHPA:1,2010-03-06T12:30:00Z,30.6671,-87.9365,1.818,0.06,1111122 
DISL,ioos:station:DISL:MHPA:1,2010-03-06T13:00:00Z,30.6671,-87.9365,1.868,0.06,1111122 
DISL,ioos:station:DISL:MHPA:1,2010-03-06T13:30:00Z,30.6671,-87.9365,1.968,0.06,1111122 
DISL,ioos:station:DISL:MHPA:1,2010-03-06T14:00:00Z,30.6671,-87.9365,2.089,0.06,1111122 
DISL,ioos:station:DISL:MHPA:1,2010-03-06T14:30:00Z,30.6671,-87.9365,2.195,0.06,1111122 
DISL,ioos:station:DISL:MHPA:1,2010-03-06T15:00:00Z,30.6671,-87.9365,2.297,0.06,1111122 
DISL,ioos:station:DISL:MHPA:1,2010-03-06T15:30:00Z,30.6671,-87.9365,2.43,0.06,1111122 